Time,TemperatureF,DewpointF,PressureIn,WindDirection,WindDirectionDegrees,WindSpeedMPH,WindSpeedGustMPH,Humidity,HourlyPrecipIn,Conditions,Clouds,dailyrainin,SoftwareType,DateUTC
2013-06-23 00:02:00,56.7,53.8,29.88,ENE,63,0.0,5.0,90,0.00,,---,0.00,VWS V14.01,2013-06-23 07:02:00,
2013-06-23 00:07:00,56.6,53.7,29.88,ESE,110,0.0,4.0,90,0.00,,---,0.00,VWS V14.01,2013-06-23 07:07:00,
2013-06-23 00:12:00,56.6,53.7,29.88,NNE,14,0.0,4.0,90,0.00,,---,0.00,VWS V14.01,2013-06-23 07:12:00,
2013-06-23 00:17:00,56.6,53.7,29.88,NNE,14,0.0,4.0,90,0.00,,---,0.00,VWS V14.01,2013-06-23 07:17:00,
2013-06-23 00:22:00,56.6,53.7,29.88,NNE,14,0.0,4.0,90,0.00,,---,0.00,VWS V14.01,2013-06-23 07:22:00,
2013-06-23 00:27:00,56.6,53.7,29.88,NNE,14,0.0,4.0,90,0.00,,---,0.00,VWS V14.01,2013-06-23 07:27:00,
2013-06-23 00:32:00,56.7,53.8,29.88,NNW,332,1.0,4.0,90,0.00,,---,0.00,VWS V14.01,2013-06-23 07:32:00,
2013-06-23 00:37:00,56.7,53.8,29.88,NE,46,0.0,0.0,90,0.00,,---,0.00,VWS V14.01,2013-06-23 07:37:00,
2013-06-23 00:42:00,56.7,53.8,29.88,NNW,346,0.0,4.0,90,0.00,,---,0.00,VWS V14.01,2013-06-23 07:42:00,
2013-06-23 00:47:00,56.7,53.8,29.88,NNW,344,0.0,4.0,90,0.00,,---,0.00,VWS V14.01,2013-06-23 07:47:00,
2013-06-23 00:53:00,56.9,54.0,29.88,NNW,343,0.0,4.0,90,0.00,,---,0.00,VWS V14.01,2013-06-23 07:53:00,
2013-06-23 00:58:00,56.9,54.0,29.88,NNW,343,0.0,4.0,90,0.00,,---,0.00,VWS V14.01,2013-06-23 07:58:00,
2013-06-23 01:03:00,57.0,54.1,29.88,NNW,337,0.0,4.0,90,0.00,,---,0.00,VWS V14.01,2013-06-23 08:03:00,
2013-06-23 01:08:00,57.0,54.1,29.88,NNW,334,0.0,0.0,90,0.00,,---,0.00,VWS V14.01,2013-06-23 08:08:00,
2013-06-23 01:13:00,57.0,54.1,29.88,WNW,294,0.0,1.0,90,0.00,,---,0.00,VWS V14.01,2013-06-23 08:13:00,
2013-06-23 01:18:00,57.0,54.1,29.88,West,281,3.0,4.0,90,0.00,,---,0.00,VWS V14.01,2013-06-23 08:18:00,
2013-06-23 01:23:00,57.0,54.1,29.88,WSW,239,0.0,4.0,90,0.00,,---,0.00,VWS V14.01,2013-06-23 08:23:00,
2013-06-23 01:28:00,57.0,54.1,29.88,WSW,238,0.0,4.0,90,0.00,,---,0.00,VWS V14.01,2013-06-23 08:28:00,
2013-06-23 01:33:00,57.0,54.1,29.87,South,178,0.0,5.0,90,0.00,,---,0.00,VWS V14.01,2013-06-23 08:33:00,
2013-06-23 01:38:00,57.0,54.1,29.87,South,178,0.0,0.0,90,0.00,,---,0.00,VWS V14.01,2013-06-23 08:38:00,
2013-06-23 01:43:00,57.0,54.1,29.87,South,178,0.0,0.0,90,0.00,,---,0.00,VWS V14.01,2013-06-23 08:43:00,
2013-06-23 01:48:00,57.0,54.1,29.87,East,98,0.0,0.0,90,0.00,,---,0.00,VWS V14.01,2013-06-23 08:48:00,
2013-06-23 01:54:00,57.0,54.1,29.87,ENE,61,0.0,2.0,90,0.00,,---,0.00,VWS V14.01,2013-06-23 08:54:00,
2013-06-23 01:59:00,57.0,54.1,29.87,NNE,19,0.0,2.0,90,0.00,,---,0.00,VWS V14.01,2013-06-23 08:59:00,
2013-06-23 02:04:00,57.0,54.1,29.87,NW,311,0.0,2.0,90,0.00,,---,0.00,VWS V14.01,2013-06-23 09:04:00,
2013-06-23 02:09:00,57.0,54.1,29.87,NW,311,0.0,1.0,90,0.00,,---,0.00,VWS V14.01,2013-06-23 09:09:00,
2013-06-23 02:14:00,57.2,54.3,29.87,West,272,0.0,2.0,90,0.00,,---,0.00,VWS V14.01,2013-06-23 09:14:00,
2013-06-23 02:19:00,57.0,54.1,29.87,West,272,0.0,2.0,90,0.00,,---,0.00,VWS V14.01,2013-06-23 09:19:00,
2013-06-23 02:24:00,57.0,54.1,29.87,West,272,0.0,2.0,90,0.00,,---,0.00,VWS V14.01,2013-06-23 09:24:00,
2013-06-23 02:29:00,57.0,54.1,29.87,West,273,0.0,2.0,90,0.00,,---,0.00,VWS V14.01,2013-06-23 09:29:00,
2013-06-23 02:34:00,56.9,54.0,29.87,SW,222,0.0,4.0,90,0.00,,---,0.00,VWS V14.01,2013-06-23 09:34:00,
2013-06-23 02:39:00,56.9,53.1,29.87,SW,231,0.0,3.0,87,0.00,,---,0.00,VWS V14.01,2013-06-23 09:39:00,
2013-06-23 02:44:00,56.7,53.8,29.87,SW,231,0.0,3.0,90,0.00,,---,0.00,VWS V14.01,2013-06-23 09:44:00,
2013-06-23 02:49:00,56.7,53.8,29.87,SW,231,0.0,3.0,90,0.00,,---,0.00,VWS V14.01,2013-06-23 09:49:00,
2013-06-23 02:54:00,56.6,53.7,29.87,SW,231,0.0,3.0,90,0.00,,---,0.00,VWS V14.01,2013-06-23 09:54:00,
2013-06-23 02:59:00,56.5,53.9,29.87,SW,232,0.0,3.0,91,0.00,,---,0.00,VWS V14.01,2013-06-23 09:59:00,
2013-06-23 03:04:00,56.3,53.7,29.87,SSW,200,0.0,0.0,91,0.00,,---,0.00,VWS V14.01,2013-06-23 10:04:00,
2013-06-23 03:10:00,56.2,53.6,29.87,WSW,237,0.0,5.0,91,0.00,,---,0.00,VWS V14.01,2013-06-23 10:10:00,
2013-06-23 03:15:00,56.0,53.7,29.87,SSW,209,0.0,6.0,92,0.00,,---,0.00,VWS V14.01,2013-06-23 10:15:00,
2013-06-23 03:20:00,56.0,53.7,29.87,SSW,211,4.0,6.0,92,0.00,,---,0.00,VWS V14.01,2013-06-23 10:20:00,
2013-06-23 03:25:00,56.0,53.7,29.87,South,174,0.0,6.0,92,0.00,,---,0.00,VWS V14.01,2013-06-23 10:25:00,
2013-06-23 03:30:00,55.9,53.6,29.87,South,175,0.0,6.0,92,0.00,,---,0.00,VWS V14.01,2013-06-23 10:30:00,
2013-06-23 03:35:00,55.9,53.6,29.87,South,175,0.0,0.0,92,0.00,,---,0.00,VWS V14.01,2013-06-23 10:35:00,
2013-06-23 03:40:00,55.9,53.6,29.87,South,173,0.0,0.0,92,0.00,,---,0.00,VWS V14.01,2013-06-23 10:40:00,
2013-06-23 03:45:00,55.9,53.6,29.87,South,173,0.0,0.0,92,0.00,,---,0.00,VWS V14.01,2013-06-23 10:45:00,
2013-06-23 03:50:00,55.9,53.6,29.86,South,173,0.0,0.0,92,0.00,,---,0.00,VWS V14.01,2013-06-23 10:50:00,
2013-06-23 03:55:00,55.9,53.6,29.86,WSW,241,0.0,3.0,92,0.00,,---,0.00,VWS V14.01,2013-06-23 10:55:00,
2013-06-23 04:00:00,55.7,53.4,29.86,WSW,242,0.0,3.0,92,0.00,,---,0.00,VWS V14.01,2013-06-23 11:00:00,
2013-06-23 04:05:00,55.6,53.3,29.86,WSW,238,0.0,0.0,92,0.00,,---,0.00,VWS V14.01,2013-06-23 11:05:00,
2013-06-23 04:10:00,55.4,53.1,29.86,SW,214,0.0,5.0,92,0.00,,---,0.00,VWS V14.01,2013-06-23 11:10:00,
2013-06-23 04:15:00,55.4,53.1,29.86,West,259,0.0,6.0,92,0.00,,---,0.00,VWS V14.01,2013-06-23 11:15:00,
2013-06-23 04:20:00,55.4,53.4,29.86,West,261,0.0,6.0,93,0.00,,---,0.00,VWS V14.01,2013-06-23 11:20:00,
2013-06-23 04:26:00,55.4,53.4,29.86,West,261,0.0,6.0,93,0.00,,---,0.00,VWS V14.01,2013-06-23 11:26:00,
2013-06-23 04:31:00,55.4,53.4,29.86,West,261,0.0,6.0,93,0.00,,---,0.00,VWS V14.01,2013-06-23 11:31:00,
2013-06-23 04:36:00,55.4,53.4,29.86,WSW,257,0.0,0.0,93,0.00,,---,0.00,VWS V14.01,2013-06-23 11:36:00,
2013-06-23 04:41:00,55.4,53.4,29.86,WSW,257,0.0,0.0,93,0.00,,---,0.00,VWS V14.01,2013-06-23 11:41:00,
2013-06-23 04:46:00,55.4,53.4,29.86,WSW,238,0.0,2.0,93,0.00,,---,0.00,VWS V14.01,2013-06-23 11:46:00,
2013-06-23 04:51:00,55.4,53.4,29.86,WSW,238,0.0,2.0,93,0.00,,---,0.00,VWS V14.01,2013-06-23 11:51:00,
2013-06-23 04:56:00,55.4,53.4,29.86,WSW,238,0.0,2.0,93,0.00,,---,0.00,VWS V14.01,2013-06-23 11:56:00,
2013-06-23 05:01:00,55.4,53.7,29.86,WSW,238,0.0,2.0,94,0.00,,---,0.00,VWS V14.01,2013-06-23 12:01:00,
2013-06-23 05:06:00,55.4,53.7,29.86,WSW,238,0.0,0.0,94,0.00,,---,0.00,VWS V14.01,2013-06-23 12:06:00,
2013-06-23 05:11:00,55.4,53.4,29.86,WSW,238,0.0,0.0,93,0.00,,---,0.00,VWS V14.01,2013-06-23 12:11:00,
2013-06-23 05:16:00,55.6,53.9,29.86,WSW,238,0.0,0.0,94,0.00,,---,0.00,VWS V14.01,2013-06-23 12:16:00,
2013-06-23 05:21:00,55.6,53.9,29.86,SSW,209,0.0,0.0,94,0.00,,---,0.00,VWS V14.01,2013-06-23 12:21:00,
2013-06-23 05:26:00,55.6,53.9,29.86,SW,215,0.0,0.0,94,0.00,,---,0.00,VWS V14.01,2013-06-23 12:26:00,
2013-06-23 05:31:00,55.6,53.9,29.86,SW,215,0.0,0.0,94,0.00,,---,0.00,VWS V14.01,2013-06-23 12:31:00,
2013-06-23 05:36:00,55.6,53.9,29.86,SW,215,0.0,0.0,94,0.00,,---,0.00,VWS V14.01,2013-06-23 12:36:00,
2013-06-23 05:41:00,55.6,53.9,29.86,SW,215,0.0,0.0,94,0.00,,---,0.00,VWS V14.01,2013-06-23 12:41:00,
2013-06-23 05:46:00,55.6,53.9,29.86,SW,215,0.0,0.0,94,0.00,,---,0.00,VWS V14.01,2013-06-23 12:46:00,
2013-06-23 05:51:00,55.6,53.9,29.86,SW,215,0.0,0.0,94,0.00,,---,0.00,VWS V14.01,2013-06-23 12:51:00,
2013-06-23 05:56:00,55.6,53.9,29.86,SW,215,0.0,0.0,94,0.00,,---,0.00,VWS V14.01,2013-06-23 12:56:00,
2013-06-23 06:01:00,55.7,54.0,29.86,SW,215,0.0,0.0,94,0.00,,---,0.00,VWS V14.01,2013-06-23 13:01:00,
2013-06-23 06:06:00,55.6,53.9,29.87,SW,215,0.0,3.0,94,0.00,,---,0.00,VWS V14.01,2013-06-23 13:06:00,
2013-06-23 06:11:00,55.6,53.9,29.87,WSW,238,0.0,4.0,94,0.00,,---,0.00,VWS V14.01,2013-06-23 13:11:00,
2013-06-23 06:16:00,55.4,53.7,29.87,WSW,238,0.0,4.0,94,0.00,,---,0.00,VWS V14.01,2013-06-23 13:16:00,
2013-06-23 06:21:00,55.4,53.7,29.87,WSW,237,0.0,4.0,94,0.00,,---,0.00,VWS V14.01,2013-06-23 13:21:00,
2013-06-23 06:27:00,55.4,54.0,29.87,WSW,237,0.0,4.0,95,0.00,,---,0.00,VWS V14.01,2013-06-23 13:27:00,
2013-06-23 06:32:00,55.4,54.0,29.87,WSW,237,0.0,4.0,95,0.00,,---,0.00,VWS V14.01,2013-06-23 13:32:00,
2013-06-23 06:37:00,55.4,54.0,29.86,WSW,237,0.0,0.0,95,0.00,,---,0.00,VWS V14.01,2013-06-23 13:37:00,
2013-06-23 06:42:00,55.6,54.2,29.86,WSW,237,0.0,0.0,95,0.00,,---,0.00,VWS V14.01,2013-06-23 13:42:00,
2013-06-23 06:47:00,55.6,54.2,29.86,WSW,237,0.0,0.0,95,0.00,,---,0.00,VWS V14.01,2013-06-23 13:47:00,
2013-06-23 06:52:00,55.6,54.2,29.87,WSW,237,0.0,0.0,95,0.00,,---,0.00,VWS V14.01,2013-06-23 13:52:00,
2013-06-23 06:57:00,55.7,54.3,29.87,WSW,237,0.0,0.0,95,0.00,,---,0.00,VWS V14.01,2013-06-23 13:57:00,
2013-06-23 07:03:00,55.7,54.3,29.87,WSW,237,0.0,0.0,95,0.00,,---,0.00,VWS V14.01,2013-06-23 14:03:00,
2013-06-23 07:08:00,55.6,54.2,29.87,WSW,237,2.0,2.0,95,0.00,,---,0.00,VWS V14.01,2013-06-23 14:08:00,
2013-06-23 07:13:00,55.6,54.2,29.87,WSW,237,0.0,3.0,95,0.00,,---,0.00,VWS V14.01,2013-06-23 14:13:00,
2013-06-23 07:18:00,55.6,54.2,29.87,SW,235,0.0,3.0,95,0.00,,---,0.00,VWS V14.01,2013-06-23 14:18:00,
2013-06-23 07:23:00,55.6,54.5,29.86,SW,234,0.0,3.0,96,0.00,,---,0.00,VWS V14.01,2013-06-23 14:23:00,
2013-06-23 07:28:00,55.7,54.6,29.86,SW,234,0.0,3.0,96,0.00,,---,0.00,VWS V14.01,2013-06-23 14:28:00,
2013-06-23 07:33:00,55.7,54.6,29.86,SSW,195,0.0,3.0,96,0.00,,---,0.00,VWS V14.01,2013-06-23 14:33:00,
2013-06-23 07:38:00,56.0,54.9,29.86,SSW,195,0.0,0.0,96,0.00,,---,0.00,VWS V14.01,2013-06-23 14:38:00,
2013-06-23 07:43:00,56.3,55.2,29.86,SSW,194,0.0,0.0,96,0.00,,---,0.00,VWS V14.01,2013-06-23 14:43:00,
2013-06-23 07:48:00,56.3,54.9,29.86,SSW,195,0.0,2.0,95,0.00,,---,0.00,VWS V14.01,2013-06-23 14:48:00,
2013-06-23 07:53:00,56.3,54.9,29.86,SSW,195,0.0,2.0,95,0.00,,---,0.00,VWS V14.01,2013-06-23 14:53:00,
2013-06-23 07:58:00,56.5,55.1,29.86,SSW,195,0.0,2.0,95,0.00,,---,0.00,VWS V14.01,2013-06-23 14:58:00,
2013-06-23 08:03:00,56.6,55.2,29.88,SSW,195,3.0,3.0,95,0.00,,---,0.00,VWS V14.01,2013-06-23 15:03:00,
2013-06-23 08:08:00,56.5,55.1,29.88,SSW,195,0.0,2.0,95,0.00,,---,0.00,VWS V14.01,2013-06-23 15:08:00,
2013-06-23 08:13:00,56.6,55.2,29.88,SSW,195,0.0,2.0,95,0.00,,---,0.00,VWS V14.01,2013-06-23 15:13:00,
2013-06-23 08:18:00,56.7,55.0,29.87,East,83,0.0,2.0,94,0.00,,---,0.00,VWS V14.01,2013-06-23 15:18:00,
2013-06-23 08:23:00,56.9,55.2,29.87,East,83,0.0,2.0,94,0.00,,---,0.00,VWS V14.01,2013-06-23 15:23:00,
2013-06-23 08:28:00,56.9,55.2,29.87,East,83,0.0,2.0,94,0.00,,---,0.00,VWS V14.01,2013-06-23 15:28:00,
2013-06-23 08:33:00,56.9,54.9,29.88,SSW,197,0.0,5.0,93,0.00,,---,0.00,VWS V14.01,2013-06-23 15:33:00,
2013-06-23 08:38:00,56.7,54.7,29.88,SSW,197,2.0,2.0,93,0.00,,---,0.00,VWS V14.01,2013-06-23 15:38:00,
2013-06-23 08:44:00,56.7,54.7,29.88,SSW,197,0.0,2.0,93,0.00,,---,0.00,VWS V14.01,2013-06-23 15:44:00,
2013-06-23 08:49:00,56.9,54.9,29.87,SSW,197,0.0,2.0,93,0.00,,---,0.00,VWS V14.01,2013-06-23 15:49:00,
2013-06-23 08:54:00,57.0,55.0,29.87,SSW,197,0.0,3.0,93,0.00,,---,0.00,VWS V14.01,2013-06-23 15:54:00,
2013-06-23 08:59:00,57.3,55.0,29.87,SSW,197,0.0,3.0,92,0.00,,---,0.00,VWS V14.01,2013-06-23 15:59:00,
2013-06-23 09:04:00,57.5,55.2,29.87,WSW,246,0.0,3.0,92,0.00,,---,0.00,VWS V14.01,2013-06-23 16:04:00,
2013-06-23 09:09:00,57.8,55.5,29.87,WSW,246,0.0,3.0,92,0.00,,---,0.00,VWS V14.01,2013-06-23 16:09:00,
2013-06-23 09:14:00,58.0,55.4,29.87,WSW,246,0.0,3.0,91,0.00,,---,0.00,VWS V14.01,2013-06-23 16:14:00,
2013-06-23 09:19:00,58.3,55.7,29.88,WSW,246,0.0,3.0,91,0.00,,---,0.00,VWS V14.01,2013-06-23 16:19:00,
2013-06-23 09:24:00,58.6,55.7,29.88,WSW,246,0.0,3.0,90,0.00,,---,0.00,VWS V14.01,2013-06-23 16:24:00,
2013-06-23 09:29:00,59.0,55.8,29.88,WSW,246,0.0,3.0,89,0.00,,---,0.00,VWS V14.01,2013-06-23 16:29:00,
2013-06-23 09:34:00,59.3,55.8,29.88,WSW,257,0.0,3.0,88,0.00,,---,0.00,VWS V14.01,2013-06-23 16:34:00,
2013-06-23 09:39:00,59.6,55.4,29.88,WSW,257,0.0,3.0,86,0.00,,---,0.00,VWS V14.01,2013-06-23 16:39:00,
2013-06-23 09:44:00,59.9,55.4,29.88,WSW,257,0.0,3.0,85,0.00,,---,0.00,VWS V14.01,2013-06-23 16:44:00,
2013-06-23 09:49:00,59.9,55.1,29.88,SSW,213,0.0,4.0,84,0.00,,---,0.00,VWS V14.01,2013-06-23 16:49:00,
2013-06-23 09:54:00,59.9,55.4,29.88,West,259,5.0,5.0,85,0.00,,---,0.00,VWS V14.01,2013-06-23 16:54:00,
2013-06-23 09:57:00,59.9,55.1,29.88,WSW,253,4.0,5.0,84,0.00,,---,0.00,VWS V14.01,2013-06-23 16:57:00,
2013-06-23 09:58:00,59.9,55.1,29.88,SW,221,1.0,5.0,84,0.00,,---,0.00,VWS V14.01,2013-06-23 16:58:00,
2013-06-23 10:04:00,60.1,55.3,29.88,WSW,238,2.0,6.0,84,0.00,,---,0.00,VWS V14.01,2013-06-23 17:04:00,
2013-06-23 10:09:00,60.1,55.3,29.88,West,269,1.0,5.0,84,0.00,,---,0.00,VWS V14.01,2013-06-23 17:09:00,
2013-06-23 10:14:00,60.4,55.2,29.88,West,261,0.0,6.0,83,0.00,,---,0.00,VWS V14.01,2013-06-23 17:14:00,
2013-06-23 10:19:00,60.7,55.5,29.88,WSW,254,0.0,6.0,83,0.00,,---,0.00,VWS V14.01,2013-06-23 17:19:00,
2013-06-23 10:24:00,61.0,55.5,29.88,SW,229,0.0,6.0,82,0.00,,---,0.00,VWS V14.01,2013-06-23 17:24:00,
2013-06-23 10:29:00,60.9,55.7,29.88,WSW,254,3.0,6.0,83,0.00,,---,0.00,VWS V14.01,2013-06-23 17:29:00,
2013-06-23 10:34:00,61.2,55.7,29.87,SW,223,0.0,6.0,82,0.00,,---,0.00,VWS V14.01,2013-06-23 17:34:00,
2013-06-23 10:39:00,61.5,56.0,29.87,West,261,1.0,3.0,82,0.00,,---,0.00,VWS V14.01,2013-06-23 17:39:00,
2013-06-23 10:44:00,61.6,55.7,29.87,West,259,0.0,3.0,81,0.00,,---,0.00,VWS V14.01,2013-06-23 17:44:00,
2013-06-23 10:49:00,61.6,55.7,29.88,WSW,253,3.0,3.0,81,0.00,,---,0.00,VWS V14.01,2013-06-23 17:49:00,
2013-06-23 10:54:00,61.3,55.8,29.88,SSW,213,0.0,7.0,82,0.00,,---,0.00,VWS V14.01,2013-06-23 17:54:00,
2013-06-23 10:59:00,61.2,56.0,29.88,West,272,3.0,7.0,83,0.00,,---,0.00,VWS V14.01,2013-06-23 17:59:00,
2013-06-23 11:04:00,61.2,55.7,29.88,West,269,0.0,0.0,82,0.00,,---,0.00,VWS V14.01,2013-06-23 18:04:00,
2013-06-23 11:09:00,61.3,55.8,29.88,West,261,0.0,4.0,82,0.00,,---,0.00,VWS V14.01,2013-06-23 18:09:00,
2013-06-23 11:14:00,61.5,55.6,29.88,SW,223,3.0,6.0,81,0.00,,---,0.00,VWS V14.01,2013-06-23 18:14:00,
2013-06-23 11:19:00,61.6,55.7,29.87,WSW,254,0.0,6.0,81,0.00,,---,0.00,VWS V14.01,2013-06-23 18:19:00,
2013-06-23 11:24:00,62.0,56.1,29.87,WSW,253,0.0,6.0,81,0.00,,---,0.00,VWS V14.01,2013-06-23 18:24:00,
2013-06-23 11:29:00,62.3,56.1,29.87,West,279,2.0,6.0,80,0.00,,---,0.00,VWS V14.01,2013-06-23 18:29:00,
2013-06-23 11:34:00,62.9,56.3,29.87,West,259,1.0,3.0,79,0.00,,---,0.00,VWS V14.01,2013-06-23 18:34:00,
2013-06-23 11:39:00,63.1,56.5,29.87,WSW,237,0.0,4.0,79,0.00,,---,0.00,VWS V14.01,2013-06-23 18:39:00,
2013-06-23 11:44:00,63.5,56.9,29.87,West,268,0.0,4.0,79,0.00,,---,0.00,VWS V14.01,2013-06-23 18:44:00,
2013-06-23 11:49:00,64.0,56.7,29.86,NW,308,3.0,4.0,77,0.00,,---,0.00,VWS V14.01,2013-06-23 18:49:00,
2013-06-23 11:54:00,64.3,56.6,29.86,WNW,293,0.0,4.0,76,0.00,,---,0.00,VWS V14.01,2013-06-23 18:54:00,
2013-06-23 12:00:00,65.0,56.9,29.86,West,274,1.0,4.0,75,0.00,,---,0.00,VWS V14.01,2013-06-23 19:00:00,
2013-06-23 12:05:00,65.3,56.4,29.86,SW,230,4.0,4.0,73,0.00,,---,0.00,VWS V14.01,2013-06-23 19:05:00,
2013-06-23 12:10:00,65.8,56.9,29.86,SSW,203,0.0,5.0,73,0.00,,---,0.00,VWS V14.01,2013-06-23 19:10:00,
2013-06-23 12:15:00,66.4,57.1,29.86,SW,233,5.0,9.0,72,0.00,,---,0.00,VWS V14.01,2013-06-23 19:15:00,
2013-06-23 12:20:00,66.9,57.2,29.86,West,259,3.0,9.0,71,0.00,,---,0.00,VWS V14.01,2013-06-23 19:20:00,
2013-06-23 12:25:00,67.3,57.6,29.86,SW,232,1.0,9.0,71,0.00,,---,0.00,VWS V14.01,2013-06-23 19:25:00,
2013-06-23 12:29:00,67.3,56.8,29.86,West,263,0.0,9.0,69,0.00,,---,0.00,VWS V14.01,2013-06-23 19:29:00,
2013-06-23 12:35:00,66.9,57.2,29.87,West,271,0.0,1.0,71,0.00,,---,0.00,VWS V14.01,2013-06-23 19:35:00,
2013-06-23 12:40:00,66.9,57.2,29.87,WNW,286,0.0,4.0,71,0.00,,---,0.00,VWS V14.01,2013-06-23 19:40:00,
2013-06-23 12:45:00,66.4,57.1,29.87,WNW,289,0.0,8.0,72,0.00,,---,0.00,VWS V14.01,2013-06-23 19:45:00,
2013-06-23 12:50:00,65.6,57.1,29.87,SW,219,1.0,8.0,74,0.00,,---,0.00,VWS V14.01,2013-06-23 19:50:00,
2013-06-23 12:55:00,65.3,57.2,29.87,WNW,289,2.0,8.0,75,0.00,,---,0.00,VWS V14.01,2013-06-23 19:55:00,
2013-06-23 13:00:00,65.8,57.3,29.87,West,272,3.0,8.0,74,0.00,,---,0.00,VWS V14.01,2013-06-23 20:00:00,
2013-06-23 13:05:00,66.4,57.1,29.86,WSW,244,1.0,6.0,72,0.00,,---,0.00,VWS V14.01,2013-06-23 20:05:00,
2013-06-23 13:10:00,66.6,57.3,29.86,WSW,250,5.0,6.0,72,0.00,,---,0.00,VWS V14.01,2013-06-23 20:10:00,
2013-06-23 13:15:00,66.8,57.5,29.86,WNW,282,0.0,8.0,72,0.00,,---,0.00,VWS V14.01,2013-06-23 20:15:00,
2013-06-23 13:20:00,67.1,57.4,29.86,WSW,257,2.0,8.0,71,0.00,,---,0.00,VWS V14.01,2013-06-23 20:20:00,
2013-06-23 13:25:00,66.8,57.1,29.86,SW,234,0.0,8.0,71,0.00,,---,0.00,VWS V14.01,2013-06-23 20:25:00,
2013-06-23 13:30:00,66.8,57.5,29.86,WNW,290,0.0,8.0,72,0.00,,---,0.00,VWS V14.01,2013-06-23 20:30:00,
2013-06-23 13:35:00,66.9,57.2,29.86,West,281,0.0,2.0,71,0.00,,---,0.00,VWS V14.01,2013-06-23 20:35:00,
2013-06-23 13:40:00,67.3,57.2,29.86,West,274,2.0,4.0,70,0.00,,---,0.00,VWS V14.01,2013-06-23 20:40:00,
2013-06-23 13:45:00,67.3,57.6,29.86,WNW,297,0.0,4.0,71,0.00,,---,0.00,VWS V14.01,2013-06-23 20:45:00,
2013-06-23 13:50:00,67.4,57.7,29.85,WNW,288,0.0,4.0,71,0.00,,---,0.00,VWS V14.01,2013-06-23 20:50:00,
2013-06-23 13:55:00,67.8,57.7,29.85,WNW,287,0.0,4.0,70,0.00,,---,0.00,VWS V14.01,2013-06-23 20:55:00,
2013-06-23 14:00:00,67.8,57.3,29.85,SSW,198,0.0,6.0,69,0.00,,---,0.00,VWS V14.01,2013-06-23 21:00:00,
2013-06-23 14:05:00,67.8,58.1,29.85,WNW,291,0.0,0.0,71,0.00,,---,0.00,VWS V14.01,2013-06-23 21:05:00,
2013-06-23 14:10:00,68.1,58.0,29.85,WSW,247,0.0,4.0,70,0.00,,---,0.00,VWS V14.01,2013-06-23 21:10:00,
2013-06-23 14:15:00,68.4,58.2,29.85,WNW,290,4.0,6.0,70,0.00,,---,0.00,VWS V14.01,2013-06-23 21:15:00,
2013-06-23 14:20:00,68.8,58.2,29.84,WSW,256,0.0,7.0,69,0.00,,---,0.00,VWS V14.01,2013-06-23 21:20:00,
2013-06-23 14:25:00,68.6,58.4,29.84,South,189,6.0,9.0,70,0.00,,---,0.00,VWS V14.01,2013-06-23 21:25:00,
2013-06-23 14:30:00,67.8,58.5,29.84,WSW,244,5.0,11.0,72,0.00,,---,0.00,VWS V14.01,2013-06-23 21:30:00,
2013-06-23 14:35:00,67.9,58.5,29.84,West,279,4.0,5.0,72,0.00,,---,0.00,VWS V14.01,2013-06-23 21:35:00,
2013-06-23 14:40:00,68.4,58.6,29.84,WNW,283,5.0,6.0,71,0.00,,---,0.00,VWS V14.01,2013-06-23 21:40:00,
2013-06-23 14:45:00,68.6,58.8,29.84,WNW,298,0.0,6.0,71,0.00,,---,0.00,VWS V14.01,2013-06-23 21:45:00,
2013-06-23 14:50:00,68.8,59.0,29.84,WSW,257,0.0,7.0,71,0.00,,---,0.00,VWS V14.01,2013-06-23 21:50:00,
2013-06-23 14:55:00,68.3,59.3,29.84,WNW,285,0.0,8.0,73,0.00,,---,0.00,VWS V14.01,2013-06-23 21:55:00,
2013-06-23 15:00:00,67.9,58.5,29.84,West,281,4.0,9.0,72,0.00,,---,0.00,VWS V14.01,2013-06-23 22:00:00,
2013-06-23 15:05:00,67.3,58.7,29.84,WSW,257,5.0,9.0,74,0.00,,---,0.00,VWS V14.01,2013-06-23 22:05:00,
2013-06-23 15:10:00,66.9,58.7,29.84,NW,315,3.0,9.0,75,0.00,,---,0.00,VWS V14.01,2013-06-23 22:10:00,
2013-06-23 15:15:00,66.6,58.4,29.84,WSW,239,7.0,9.0,75,0.00,,---,0.00,VWS V14.01,2013-06-23 22:15:00,
2013-06-23 15:20:00,66.4,58.6,29.83,West,275,0.0,9.0,76,0.00,,---,0.00,VWS V14.01,2013-06-23 22:20:00,
2013-06-23 15:25:00,66.8,58.3,29.83,West,281,0.0,9.0,74,0.00,,---,0.00,VWS V14.01,2013-06-23 22:25:00,
2013-06-23 15:30:00,66.8,58.3,29.83,West,265,2.0,9.0,74,0.00,,---,0.00,VWS V14.01,2013-06-23 22:30:00,
2013-06-23 15:35:00,66.4,58.2,29.84,WSW,248,8.0,8.0,75,0.00,,---,0.00,VWS V14.01,2013-06-23 22:35:00,
2013-06-23 15:40:00,66.1,58.3,29.84,WSW,240,3.0,8.0,76,0.00,,---,0.00,VWS V14.01,2013-06-23 22:40:00,
2013-06-23 15:45:00,66.0,58.2,29.84,WNW,287,0.0,9.0,76,0.00,,---,0.00,VWS V14.01,2013-06-23 22:45:00,
2013-06-23 15:50:00,66.0,58.2,29.84,WSW,247,4.0,9.0,76,0.00,,---,0.00,VWS V14.01,2013-06-23 22:50:00,
2013-06-23 15:55:00,65.6,58.2,29.84,West,259,2.0,9.0,77,0.00,,---,0.00,VWS V14.01,2013-06-23 22:55:00,
2013-06-23 16:00:00,65.3,57.9,29.84,West,264,4.0,9.0,77,0.00,,---,0.00,VWS V14.01,2013-06-23 23:00:00,
2013-06-23 16:05:00,65.0,57.6,29.84,WSW,246,3.0,3.0,77,0.00,,---,0.00,VWS V14.01,2013-06-23 23:05:00,
2013-06-23 16:10:00,64.7,58.0,29.84,WSW,252,5.0,7.0,79,0.00,,---,0.00,VWS V14.01,2013-06-23 23:10:00,
2013-06-23 16:15:00,64.3,57.7,29.84,SW,236,3.0,7.0,79,0.00,,---,0.00,VWS V14.01,2013-06-23 23:15:00,
2013-06-23 16:20:00,64.2,57.9,29.84,WSW,243,0.0,7.0,80,0.00,,---,0.00,VWS V14.01,2013-06-23 23:20:00,
2013-06-23 16:25:00,63.9,57.6,29.84,WNW,284,0.0,7.0,80,0.00,,---,0.00,VWS V14.01,2013-06-23 23:25:00,
2013-06-23 16:30:00,63.7,57.8,29.84,WSW,238,5.0,8.0,81,0.00,,---,0.00,VWS V14.01,2013-06-23 23:30:00,
2013-06-23 16:36:00,63.4,58.2,29.84,SW,227,0.0,5.0,83,0.01,,---,0.01,VWS V14.01,2013-06-23 23:36:00,
2013-06-23 16:41:00,62.6,58.4,29.84,WSW,243,0.0,7.0,86,0.01,,---,0.01,VWS V14.01,2013-06-23 23:41:00,
2013-06-23 16:46:00,62.0,58.1,29.84,WSW,252,2.0,7.0,87,0.01,,---,0.01,VWS V14.01,2013-06-23 23:46:00,
2013-06-23 16:51:00,61.6,58.3,29.84,WSW,244,3.0,7.0,89,0.01,,---,0.01,VWS V14.01,2013-06-23 23:51:00,
2013-06-23 16:56:00,61.3,58.3,29.84,West,277,0.0,8.0,90,0.01,,---,0.01,VWS V14.01,2013-06-23 23:56:00,
2013-06-23 17:01:00,61.2,58.2,29.84,WSW,250,2.0,8.0,90,0.01,,---,0.01,VWS V14.01,2013-06-24 00:01:00,
2013-06-23 17:06:00,60.9,58.3,29.84,West,276,3.0,5.0,91,0.01,,---,0.01,VWS V14.01,2013-06-24 00:06:00,
2013-06-23 17:11:00,60.7,58.1,29.84,West,267,0.0,5.0,91,0.01,,---,0.01,VWS V14.01,2013-06-24 00:11:00,
2013-06-23 17:16:00,60.7,58.1,29.84,WSW,257,0.0,5.0,91,0.01,,---,0.01,VWS V14.01,2013-06-24 00:16:00,
2013-06-23 17:21:00,60.5,58.2,29.83,WSW,252,0.0,5.0,92,0.01,,---,0.01,VWS V14.01,2013-06-24 00:21:00,
2013-06-23 17:26:00,60.5,58.2,29.83,West,261,5.0,5.0,92,0.01,,---,0.01,VWS V14.01,2013-06-24 00:26:00,
2013-06-23 17:31:00,60.5,58.2,29.83,West,268,3.0,7.0,92,0.01,,---,0.01,VWS V14.01,2013-06-24 00:31:00,
2013-06-23 17:36:00,60.5,58.2,29.83,West,261,4.0,4.0,92,0.01,,---,0.01,VWS V14.01,2013-06-24 00:36:00,
2013-06-23 17:41:00,60.5,58.2,29.83,WSW,244,0.0,4.0,92,0.01,,---,0.01,VWS V14.01,2013-06-24 00:41:00,
2013-06-23 17:46:00,60.7,58.4,29.83,WNW,283,0.0,4.0,92,0.01,,---,0.01,VWS V14.01,2013-06-24 00:46:00,
2013-06-23 17:51:00,60.9,58.6,29.83,WNW,286,2.0,5.0,92,0.01,,---,0.01,VWS V14.01,2013-06-24 00:51:00,
2013-06-23 17:56:00,61.0,58.7,29.83,WSW,258,0.0,5.0,92,0.01,,---,0.01,VWS V14.01,2013-06-24 00:56:00,
2013-06-23 18:01:00,61.0,58.7,29.83,West,269,2.0,5.0,92,0.01,,---,0.01,VWS V14.01,2013-06-24 01:01:00,
2013-06-23 18:06:00,61.0,58.7,29.83,West,281,3.0,6.0,92,0.00,,---,0.01,VWS V14.01,2013-06-24 01:06:00,
2013-06-23 18:12:00,60.9,58.6,29.83,West,270,3.0,6.0,92,0.00,,---,0.01,VWS V14.01,2013-06-24 01:12:00,
2013-06-23 18:17:00,60.9,58.6,29.83,WSW,240,0.0,6.0,92,0.00,,---,0.01,VWS V14.01,2013-06-24 01:17:00,
2013-06-23 18:22:00,60.9,58.6,29.83,West,266,0.0,6.0,92,0.00,,---,0.01,VWS V14.01,2013-06-24 01:22:00,
2013-06-23 18:27:00,60.7,58.4,29.83,West,263,0.0,6.0,92,0.00,,---,0.01,VWS V14.01,2013-06-24 01:27:00,
2013-06-23 18:32:00,60.7,58.7,29.83,West,261,0.0,6.0,93,0.00,,---,0.01,VWS V14.01,2013-06-24 01:32:00,
2013-06-23 18:37:00,60.7,58.7,29.83,West,268,0.0,0.0,93,0.00,,---,0.01,VWS V14.01,2013-06-24 01:37:00,
2013-06-23 18:42:00,60.9,58.9,29.83,WSW,251,0.0,4.0,93,0.00,,---,0.01,VWS V14.01,2013-06-24 01:42:00,
2013-06-23 18:47:00,60.7,58.7,29.83,WSW,239,0.0,4.0,93,0.00,,---,0.01,VWS V14.01,2013-06-24 01:47:00,
2013-06-23 18:52:00,60.7,58.7,29.83,West,276,0.0,4.0,93,0.00,,---,0.01,VWS V14.01,2013-06-24 01:52:00,
2013-06-23 18:57:00,60.9,58.9,29.83,West,266,0.0,4.0,93,0.00,,---,0.01,VWS V14.01,2013-06-24 01:57:00,
2013-06-23 19:02:00,60.9,58.9,29.83,WSW,246,0.0,6.0,93,0.00,,---,0.01,VWS V14.01,2013-06-24 02:02:00,
2013-06-23 19:07:00,60.7,58.7,29.83,West,263,0.0,3.0,93,0.00,,---,0.01,VWS V14.01,2013-06-24 02:07:00,
2013-06-23 19:12:00,60.7,58.7,29.83,West,268,0.0,4.0,93,0.00,,---,0.01,VWS V14.01,2013-06-24 02:12:00,
2013-06-23 19:17:00,60.7,58.7,29.83,West,269,2.0,4.0,93,0.00,,---,0.01,VWS V14.01,2013-06-24 02:17:00,
2013-06-23 19:22:00,60.7,58.7,29.83,West,261,2.0,5.0,93,0.00,,---,0.01,VWS V14.01,2013-06-24 02:22:00,
2013-06-23 19:27:00,60.7,58.7,29.83,West,269,1.0,5.0,93,0.00,,---,0.01,VWS V14.01,2013-06-24 02:27:00,
2013-06-23 19:32:00,60.5,58.8,29.83,WSW,248,3.0,6.0,94,0.00,,---,0.01,VWS V14.01,2013-06-24 02:32:00,
2013-06-23 19:37:00,60.2,58.5,29.83,West,269,5.0,5.0,94,0.00,,---,0.01,VWS V14.01,2013-06-24 02:37:00,
2013-06-23 19:42:00,60.1,58.4,29.83,West,265,0.0,6.0,94,0.00,,---,0.01,VWS V14.01,2013-06-24 02:42:00,
2013-06-23 19:47:00,59.9,58.2,29.83,WSW,242,5.0,6.0,94,0.00,,---,0.01,VWS V14.01,2013-06-24 02:47:00,
2013-06-23 19:52:00,59.9,58.5,29.83,West,262,0.0,6.0,95,0.00,,---,0.01,VWS V14.01,2013-06-24 02:52:00,
2013-06-23 19:57:00,59.9,58.5,29.83,West,265,1.0,6.0,95,0.00,,---,0.01,VWS V14.01,2013-06-24 02:57:00,
2013-06-23 20:02:00,59.9,58.5,29.83,West,265,0.0,6.0,95,0.00,,---,0.01,VWS V14.01,2013-06-24 03:02:00,
2013-06-23 20:07:00,59.9,58.5,29.83,West,265,0.0,0.0,95,0.00,,---,0.01,VWS V14.01,2013-06-24 03:07:00,
2013-06-23 20:12:00,59.9,58.5,29.83,West,265,0.0,0.0,95,0.00,,---,0.01,VWS V14.01,2013-06-24 03:12:00,
2013-06-23 20:17:00,59.9,58.5,29.83,West,265,0.0,0.0,95,0.00,,---,0.01,VWS V14.01,2013-06-24 03:17:00,
2013-06-23 20:22:00,59.9,58.5,29.82,West,265,0.0,0.0,95,0.00,,---,0.01,VWS V14.01,2013-06-24 03:22:00,
2013-06-23 20:27:00,59.9,58.5,29.82,West,265,0.0,0.0,95,0.00,,---,0.01,VWS V14.01,2013-06-24 03:27:00,
2013-06-23 20:32:00,59.9,58.5,29.82,West,265,0.0,0.0,95,0.00,,---,0.01,VWS V14.01,2013-06-24 03:32:00,
2013-06-23 20:37:00,59.9,58.5,29.82,West,265,0.0,0.0,95,0.00,,---,0.01,VWS V14.01,2013-06-24 03:37:00,
2013-06-23 20:42:00,59.9,58.5,29.82,West,265,0.0,0.0,95,0.00,,---,0.01,VWS V14.01,2013-06-24 03:42:00,
2013-06-23 20:47:00,59.8,58.4,29.82,West,265,0.0,0.0,95,0.00,,---,0.01,VWS V14.01,2013-06-24 03:47:00,
2013-06-23 20:52:00,59.6,58.2,29.82,West,265,0.0,0.0,95,0.00,,---,0.01,VWS V14.01,2013-06-24 03:52:00,
2013-06-23 20:57:00,59.6,58.5,29.82,West,265,0.0,0.0,96,0.00,,---,0.01,VWS V14.01,2013-06-24 03:57:00,
2013-06-23 21:01:00,59.8,58.7,29.82,West,265,0.0,0.0,96,0.00,,---,0.01,VWS V14.01,2013-06-24 04:01:00,
2013-06-23 21:02:00,59.8,58.7,29.82,West,265,0.0,0.0,96,0.00,,---,0.01,VWS V14.01,2013-06-24 04:02:00,
2013-06-23 21:07:00,59.8,58.7,29.81,West,264,0.0,0.0,96,0.00,,---,0.01,VWS V14.01,2013-06-24 04:07:00,
2013-06-23 21:12:00,59.8,58.7,29.81,West,264,0.0,1.0,96,0.00,,---,0.01,VWS V14.01,2013-06-24 04:12:00,
2013-06-23 21:17:00,59.6,58.5,29.81,West,264,0.0,1.0,96,0.00,,---,0.01,VWS V14.01,2013-06-24 04:17:00,
2013-06-23 21:22:00,59.6,58.5,29.81,West,264,0.0,3.0,96,0.00,,---,0.01,VWS V14.01,2013-06-24 04:22:00,
2013-06-23 21:27:00,59.6,58.5,29.81,West,264,0.0,3.0,96,0.00,,---,0.01,VWS V14.01,2013-06-24 04:27:00,
2013-06-23 21:32:00,59.6,58.5,29.81,West,264,0.0,3.0,96,0.00,,---,0.01,VWS V14.01,2013-06-24 04:32:00,
2013-06-23 21:37:00,59.6,58.5,29.81,West,264,0.0,0.0,96,0.00,,---,0.01,VWS V14.01,2013-06-24 04:37:00,
2013-06-23 21:42:00,59.6,58.5,29.81,West,263,0.0,4.0,96,0.00,,---,0.01,VWS V14.01,2013-06-24 04:42:00,
2013-06-23 21:47:00,59.5,58.4,29.81,West,263,0.0,4.0,96,0.00,,---,0.01,VWS V14.01,2013-06-24 04:47:00,
2013-06-23 21:52:00,59.5,58.4,29.81,West,263,0.0,4.0,96,0.00,,---,0.01,VWS V14.01,2013-06-24 04:52:00,
2013-06-23 21:57:00,59.5,58.4,29.81,SW,232,0.0,4.0,96,0.00,,---,0.01,VWS V14.01,2013-06-24 04:57:00,
2013-06-23 22:02:00,59.5,58.4,29.81,SW,217,3.0,4.0,96,0.00,,---,0.01,VWS V14.01,2013-06-24 05:02:00,
2013-06-23 22:07:00,59.5,58.4,29.82,SW,217,0.0,2.0,96,0.00,,---,0.01,VWS V14.01,2013-06-24 05:07:00,
2013-06-23 22:12:00,59.5,58.4,29.82,SW,224,0.0,2.0,96,0.00,,---,0.01,VWS V14.01,2013-06-24 05:12:00,
2013-06-23 22:17:00,59.5,58.4,29.82,SW,224,0.0,2.0,96,0.00,,---,0.01,VWS V14.01,2013-06-24 05:17:00,
2013-06-23 22:22:00,59.5,58.4,29.82,SW,224,0.0,2.0,96,0.00,,---,0.01,VWS V14.01,2013-06-24 05:22:00,
2013-06-23 22:27:00,59.5,58.4,29.82,SW,224,0.0,2.0,96,0.00,,---,0.01,VWS V14.01,2013-06-24 05:27:00,
2013-06-23 22:32:00,59.5,58.4,29.82,SW,224,3.0,3.0,96,0.00,,---,0.01,VWS V14.01,2013-06-24 05:32:00,
2013-06-23 22:37:00,59.5,58.4,29.82,SW,224,0.0,0.0,96,0.00,,---,0.01,VWS V14.01,2013-06-24 05:37:00,
2013-06-23 22:42:00,59.5,58.4,29.82,SW,224,0.0,1.0,96,0.00,,---,0.01,VWS V14.01,2013-06-24 05:42:00,
2013-06-23 22:47:00,59.5,58.0,29.82,SW,224,0.0,-999.0,96,-99.99,,,0.01,weatherlink.com 1.10,2013-06-24 05:47:00,
2013-06-23 22:52:00,59.5,58.4,29.82,SW,224,0.0,2.0,96,0.00,,---,0.01,VWS V14.01,2013-06-24 05:52:00,
2013-06-23 22:57:00,59.5,58.4,29.82,SW,224,0.0,2.0,96,0.00,,---,0.01,VWS V14.01,2013-06-24 05:57:00,
2013-06-23 23:02:00,59.5,58.4,29.82,SW,224,0.0,2.0,96,0.00,,---,0.01,VWS V14.01,2013-06-24 06:02:00,
2013-06-23 23:07:00,59.5,58.4,29.81,SW,224,0.0,1.0,96,0.00,,---,0.01,VWS V14.01,2013-06-24 06:07:00,
2013-06-23 23:13:00,59.5,58.4,29.81,SW,236,0.0,3.0,96,0.00,,---,0.01,VWS V14.01,2013-06-24 06:13:00,
2013-06-23 23:18:00,59.3,58.2,29.81,WSW,242,1.0,3.0,96,0.00,,---,0.01,VWS V14.01,2013-06-24 06:18:00,
2013-06-23 23:23:00,59.3,58.2,29.81,WSW,242,0.0,3.0,96,0.00,,---,0.01,VWS V14.01,2013-06-24 06:23:00,
2013-06-23 23:28:00,59.3,58.2,29.81,WSW,242,0.0,3.0,96,0.00,,---,0.01,VWS V14.01,2013-06-24 06:28:00,
2013-06-23 23:34:00,59.5,58.4,29.81,WSW,242,0.0,3.0,96,0.00,,---,0.01,VWS V14.01,2013-06-24 06:34:00,
2013-06-23 23:39:00,59.5,58.4,29.81,WSW,242,0.0,0.0,96,0.00,,---,0.01,VWS V14.01,2013-06-24 06:39:00,
2013-06-23 23:44:00,59.5,58.7,29.81,WSW,242,0.0,2.0,97,0.00,,---,0.01,VWS V14.01,2013-06-24 06:44:00,
2013-06-23 23:49:00,59.5,58.4,29.81,WSW,242,0.0,2.0,96,0.00,,---,0.01,VWS V14.01,2013-06-24 06:49:00,
2013-06-23 23:55:00,59.5,58.7,29.81,WSW,242,0.0,2.0,97,0.00,,---,0.01,VWS V14.01,2013-06-24 06:55:00,